COSMOS 2251 DEB

Satellite information

Favourite Embed

Satellite Type and Status

DEBRISDECAYED

Key statistics

Satellite COSMOS 2251 DEB at a glance.

Uptime

11636

Days in orbit

Revolutions

≈ 15.1

Per day

Orbit

LEO

Low Earth Orbit

Inclination

74.0

Latest

Satellite identification and parameters

Extended collection of information and parameters for COSMOS 2251 DEB.

Object identification

Identified? True

Debris? True

Object name: COSMOS 2251 DEB

International designator: 1993-036BRF

Object number (NORAD): 38004

Object ID (CCSDS): 38004

Country: COMMONWEALTH OF INDEPENDENT STATES (CIS)

Current information (Y/N): Y

RCS size: SMALL

Orbital parameters

Decay date: April 25, 2025

Period: 95.502 minutes

Inclination: 74.0163 deg

SMA: 6920.987 km

Apoapsis: 553.673 km

Periapsis: 532.03 km

RAAN: 208.2648 deg

Eccentricy: 0.0015636

Argument of periapsis: 349.2345 deg

Mean anomaly: 10.8508 deg

Mean motion: 15.07824264 rev/day

Mean motion (dot): 0.00195958 rev/day2

B* drag term: 0.012419 1/REarth

Two-line elements (TLE)

Creation date: March 14, 2025, 8:37 p.m.

Reference frame: TEME

Reference center: EARTH

Epoch: March 14, 2025, 1:16 a.m. UTC

TLE line 0: 0 COSMOS 2251 DEB

TLE line 1: 1 38004U 93036BRF 25073.05315645 .00195958 00000-0 12419-1 0 9997

TLE line 2: 2 38004 74.0163 208.2648 0015636 349.2345 10.8508 15.07824264617778

Live tracking on map

Satellite COSMOS 2251 DEB has decayed and is no longer in orbit. No tracking available.

In-orbit conjunctions

Satellite COSMOS 2251 DEB has decayed and is no longer in orbit. No conjunctions available.

Associated space launch

Military communications satellite. Destroyed in a collision with Iridium 33.

COSMOS 2251 DEB was lifted into orbit during the mission ‘Kosmos-3M | Strela-2M 51’, on board a Kosmos-3M space rocket.

The launch took place on June 16, 1993, 4:17 a.m. from 132/1 (132L).

For more information about the launch, click the button.

Launch to space Kosmos-3M | Strela-2M 51
Kosmos-3M | Strela-2M 51

Agency: N/A

Status: Launch Successful

Launch date: June 16, 1993, 4:17 a.m. UTC

Rocket: Kosmos-3M

Launch pad: 132/1 (132L)

Location: Plesetsk Cosmodrome, Russian Federation

...

Latest news about this satellite

There are no fresh news available about this satellite. Check back as we update our databases every day.


Newsletter sign-up

Weekly statistics, charts and insights to help you stay on top of the space industry.